Wind_Speed
7 6 6 6 6 6 6 6 5 5 4 5 5 5 5 5 4 4 4 5 5 5 4 4 4 4 4 4 3 4 4 5 5 6 7 7 7 8 8 8 8 9 9
5 5 5 5 5 5 5 6 5 4 4 4 4 4 4 4 4 4 4 4 4 4 4 4 5 5 5 5 5 5 6 6 6 7 7 8 9 9 8 8 9 10 10
4 4 4 4 4 4 5 5 5 4 4 3 3 3 3 3 4 4 4 4 4 4 4 5 5 6 6 6 5 6 6 6 7 8 8 8 9 9 9 9 10 10 10
2 3 3 3 3 4 4 4 5 5 4 3 3 3 3 3 3 3 3 4 4 5 5 6 7 7 7 7 7 7 7 7 8 8 9 9 9 10 10 10 11 11 11
1 2 2 3 3 3 3 4 4 4 3 3 3 3 4 3 3 4 4 5 5 6 6 7 7 8 7 8 8 8 8 8 8 9 9 9 10 10 10 11 11 12 12
2 3 3 4 4 4 4 4 3 3 3 4 4 5 4 4 4 5 5 6 6 7 7 7 8 8 8 9 9 9 9 9 9 9 10 10 11 11 11 12 12 13 14
4 4 5 4 4 5 4 4 4 4 4 5 5 5 5 5 5 6 6 7 7 8 9 8 8 9 9 10 10 10 9 9 10 10 11 11 12 12 12 12 13 14 14
6 6 6 5 5 5 5 5 5 5 5 5 6 5 6 6 6 7 7 7 8 9 9 9 9 10 10 11 11 11 11 11 11 12 12 13 13 14 14 14 14 14 15
8 8 7 7 7 7 7 7 6 6 6 6 6 6 6 6 7 7 8 8 9 9 9 10 10 11 11 12 12 12 12 12 13 13 14 14 15 15 15 15 16 16 16
10 10 9 9 9 8 8 8 8 7 7 7 8 7 7 7 7 8 8 9 9 10 10 11 11 12 12 12 12 12 12 13 13 14 14 15 15 15 15 16 16 17 18
11 11 11 11 10 9 9 9 9 9 9 9 9 9 9 9 9 9 9 10 10 11 11 12 13 14 14 13 13 13 13 13 14 14 15 16 16 16 17 17 17 18 19
12 12 12 12 11 10 10 10 10 10 10 10 10 10 10 10 10 10 11 11 11 12 12 13 13 14 15 15 14 15 15 15 15 16 16 17 17 17 18 18 18 18 19
12 13 13 12 12 12 11 12 12 12 12 11 11 10 10 10 11 11 11 12 12 13 14 14 15 15 16 16 16 16 16 16 16 17 18 18 18 18 19 19 18 18 19
14 14 13 13 13 13 13 13 13 13 13 13 12 12 12 12 11 11 12 13 14 14 15 16 17 17 17 18 18 18 17 18 18 18 19 19 19 19 19 19 19 20 20
15 15 14 14 14 14 14 14 14 14 14 14 14 14 13 13 12 13 13 14 16 16 17 17 18 19 19 19 20 20 19 20 20 20 20 20 20 20 20 20 20 21 21
16 16 16 16 16 15 16 15 15 16 16 16 16 16 15 14 14 15 15 16 17 18 18 19 19 20 20 21 21 22 21 22 22 22 21 22 22 21 21 21 21 22 22
17 17 17 17 17 17 17 17 17 18 18 17 17 17 17 17 16 17 17 18 19 19 19 20 20 20 21 21 22 22 22 23 23 23 23 23 22 22 22 22 22 22 23
19 19 19 18 19 19 18 18 18 18 18 18 18 18 18 18 19 19 19 20 20 20 20 20 21 21 22 22 24 24 24 24 24 24 24 23 23 23 23 24 24 24 24
20 20 20 20 21 20 20 20 20 19 20 19 19 19 20 20 21 21 21 21 20 21 21 22 22 23 23 23 24 25 25 25 25 25 24 24 24 25 25 25 25 25 25
22 22 22 22 23 23 22 22 22 21 21 21 21 21 21 22 22 21 21 21 22 22 23 24 24 25 25 25 25 26 26 26 26 25 25 25 25 26 26 26 26 26 27
24 24 24 24 25 25 24 23 23 22 22 22 23 23 23 23 23 23 23 23 23 24 24 25 26 26 26 26 26 26 26 27 27 26 26 26 26 27 27 27 27 27 27
27 26 26 26 26 26 26 26 25 24 24 24 24 24 25 25 24 24 24 24 24 25 25 26 26 27 27 26 27 27 28 28 29 28 27 27 28 28 29 28 28 28 28
28 28 28 29 29 28 28 27 26 26 25 25 25 25 25 26 25 25 25 25 26 26 27 27 27 27 27 27 27 28 28 29 29 29 29 29 29 29 29 29 29 29 30
29 29 29 30 31 30 29 29 28 27 27 26 26 26 26 26 26 27 26 26 26 27 27 28 28 28 28 28 28 29 28 29 30 29 29 30 29 29 29 29 30 30 31
30 30 29 29 29 29 29 29 28 28 28 27 26 26 26 26 26 27 27 27 28 28 29 29 29 29 29 29 29 30 30 30 29 29 29 30 31 30 30 30 30 31 31
30 30 30 30 30 30 30 30 30 29 29 28 27 27 27 27 27 28 29 29 29 29 30 29 29 30 31 31 30 30 30 30 30 30 30 30 30 30 30 30 30 31 31
Wind_Direction
66 66 68 66 67 71 74 74 77 78 80 82 78 76 72 70 67 59 59 55 56 57 50 43 31 22 10 356 347 339 337 333 327 325 322 319 318 317 314 311 310 311 311
64 59 53 54 56 60 67 71 64 71 77 79 74 68 64 61 54 52 52 53 53 42 34 24 14 2 354 344 336 332 320 316 315 316 319 319 317 314 313 311 306 308 310
57 49 37 37 42 49 52 52 52 59 67 71 67 59 48 41 41 43 33 27 23 19 15 10 359 350 344 335 325 320 316 313 314 314 315 317 318 316 313 309 306 305 306
36 28 20 16 30 40 34 30 36 37 46 54 45 32 23 20 17 15 4 357 351 350 352 349 346 343 339 334 327 320 319 317 314 314 312 312 314 315 313 309 307 304 303
347 357 357 353 360 8 11 12 12 13 16 20 14 6 2 356 350 351 348 346 344 343 345 344 341 341 340 337 334 330 326 323 318 315 311 310 310 312 311 308 306 304 305
300 310 321 328 334 341 344 345 344 343 344 347 351 354 352 343 336 337 340 339 336 336 336 337 334 333 336 336 334 332 328 321 317 315 311 308 309 309 308 305 303 303 304
291 297 299 304 312 317 321 324 322 320 319 325 334 338 343 337 329 325 326 328 328 326 328 331 331 329 330 332 330 329 327 320 316 314 312 308 307 307 305 304 304 303 301
283 288 288 288 297 301 302 308 308 307 305 308 316 322 327 331 334 332 328 325 324 324 327 329 329 328 325 326 326 324 322 318 316 314 311 309 307 305 303 303 303 303 300
282 281 277 279 286 288 292 293 297 300 302 299 299 308 316 319 325 328 327 325 322 321 322 321 322 324 322 323 322 320 319 318 315 312 312 309 307 307 304 302 301 302 301
284 282 278 279 281 282 284 286 289 293 297 297 296 301 304 309 314 317 321 324 322 321 321 318 321 321 321 319 318 318 319 317 314 312 310 311 310 309 307 305 303 302 302
280 278 279 279 277 278 279 283 284 285 289 293 295 296 295 304 308 310 310 311 314 315 315 314 315 315 315 316 314 313 314 315 313 313 311 310 311 310 310 309 307 305 304
280 277 279 280 275 277 278 280 280 281 284 288 290 291 293 299 303 304 304 305 306 307 307 309 310 310 309 309 308 309 311 311 310 310 309 309 309 310 310 309 307 305 303
277 277 279 280 275 274 277 278 278 279 281 284 287 289 293 296 300 302 302 302 303 304 303 304 305 305 305 305 304 305 307 308 307 306 308 309 309 309 309 309 308 306 305
271 272 275 276 273 274 276 277 276 278 280 280 283 287 291 294 296 298 299 300 300 302 302 303 302 304 302 303 302 302 305 304 304 304 305 306 307 306 305 306 305 305 305
266 268 271 273 271 273 275 275 276 278 279 280 282 284 289 291 294 297 298 299 300 301 301 302 301 300 299 301 301 299 299 301 301 302 303 305 305 303 303 304 304 304 304
263 265 269 272 272 272 273 274 276 278 279 280 281 282 286 289 292 296 297 298 299 300 300 300 300 298 297 298 299 299 299 300 299 299 300 301 302 302 303 303 303 303 303
263 264 266 269 271 273 273 274 276 278 278 279 278 280 282 284 288 292 294 297 298 298 298 299 299 298 297 297 298 298 298 301 302 301 299 300 301 301 301 301 300 300 301
261 263 265 267 267 269 271 273 276 276 277 280 279 279 280 282 285 288 292 294 296 296 297 298 298 297 297 298 299 298 297 299 301 302 300 299 301 300 301 301 301 300 300
262 262 262 265 266 268 269 272 274 275 276 280 280 279 279 281 285 287 288 290 291 293 295 296 297 298 298 297 298 297 298 299 300 299 298 298 300 302 301 301 300 299 300
262 261 261 263 265 266 268 270 274 277 279 280 280 279 278 279 283 285 286 287 289 291 294 296 297 298 299 298 297 296 297 299 300 299 297 297 299 301 301 300 300 300 300
261 263 261 261 263 265 267 271 274 275 276 277 278 278 278 279 282 283 283 284 288 292 294 295 295 296 297 297 297 297 297 298 298 299 297 295 297 299 299 299 299 300 300
260 262 261 261 263 265 267 270 272 274 274 274 276 277 277 279 282 283 282 283 286 291 293 295 295 296 296 296 296 297 298 298 297 297 296 295 296 297 298 299 298 299 300
259 261 262 262 262 263 267 269 272 274 274 274 276 277 280 281 281 281 282 283 286 289 292 293 294 296 296 296 297 298 299 298 298 297 295 295 294 294 295 298 299 299 299
259 261 262 261 261 262 265 269 271 272 273 274 276 277 279 281 281 281 282 285 287 288 291 293 293 294 294 295 297 299 299 299 298 298 297 296 295 294 294 296 298 298 298
258 259 261 262 262 263 265 266 267 268 270 272 274 276 278 279 281 281 282 284 286 289 291 293 293 293 293 293 295 297 298 298 298 297 295 295 295 295 294 296 296 297 298
257 259 261 262 262 261 263 264 265 266 268 270 272 274 277 279 280 282 282 284 288 291 293 293 294 293 293 293 294 296 296 296 295 295 296 295 295 294 294 296 298 298 299
Height
5912 5912 5911 5911 5910 5910 5909 5908 5908 5907 5907 5906 5905 5905 5904 5903 5903 5902 5901 5900 5900 5899 5898 5897 5897 5896 5895 5894 5893 5893 5892 5891 5890 5889 5888 5887 5885 5884 5883 5882 5881 5880 5879
5914 5913 5913 5912 5911 5911 5910 5909 5909 5908 5908 5907 5906 5906 5905 5904 5903 5903 5902 5901 5900 5899 5898 5897 5896 5896 5894 5893 5892 5891 5890 5890 5889 5888 5886 5885 5884 5882 5881 5880 5879 5878 5876
5915 5914 5914 5913 5912 5911 5911 5910 5910 5909 5908 5908 5907 5906 5906 5905 5904 5903 5902 5901 5900 5899 5898 5897 5896 5895 5893 5892 5891 5890 5889 5888 5887 5886 5885 5884 5883 5881 5880 5878 5877 5876 5874
5916 5915 5915 5914 5913 5912 5912 5911 5910 5910 5909 5908 5908 5907 5906 5905 5904 5903 5902 5901 5900 5899 5897 5896 5895 5894 5892 5891 5890 5889 5888 5887 5886 5884 5883 5882 5881 5879 5878 5877 5875 5873 5872
5916 5916 5915 5914 5914 5913 5912 5911 5910 5910 5909 5908 5908 5907 5906 5905 5904 5903 5902 5901 5900 5898 5897 5896 5894 5893 5892 5890 5889 5888 5886 5885 5884 5883 5882 5880 5879 5877 5876 5875 5873 5871 5870
5916 5916 5915 5914 5914 5913 5912 5911 5910 5910 5909 5908 5908 5907 5906 5905 5904 5903 5902 5901 5900 5898 5897 5895 5893 5892 5891 5889 5887 5886 5885 5883 5882 5881 5879 5878 5877 5875 5874 5872 5871 5869 5867
5916 5915 5915 5914 5913 5912 5912 5911 5910 5909 5909 5908 5907 5906 5905 5904 5903 5902 5901 5900 5899 5897 5896 5894 5892 5891 5889 5888 5886 5885 5883 5882 5880 5878 5877 5875 5874 5872 5871 5869 5868 5866 5864
5915 5915 5914 5913 5912 5911 5911 5910 5909 5909 5908 5907 5906 5905 5904 5903 5902 5901 5900 5898 5897 5896 5894 5892 5891 5889 5887 5886 5884 5882 5881 5879 5878 5876 5874 5873 5871 5869 5867 5866 5864 5863 5861
5913 5913 5912 5912 5911 5910 5909 5909 5908 5907 5907 5906 5905 5904 5903 5902 5901 5900 5898 5897 5895 5894 5892 5891 5889 5887 5885 5883 5882 5880 5878 5877 5875 5873 5872 5870 5868 5866 5864 5862 5860 5859 5857
5911 5910 5910 5909 5909 5908 5908 5907 5906 5906 5905 5904 5903 5902 5901 5900 5899 5898 5896 5895 5893 5892 5890 5889 5887 5885 5883 5881 5879 5878 5876 5874 5872 5870 5868 5866 5864 5862 5860 5858 5856 5854 5853
5908 5908 5907 5907 5906 5906 5905 5905 5904 5904 5903 5902 5901 5900 5899 5898 5897 5895 5894 5893 5891 5890 5888 5886 5885 5883 5881 5879 5877 5875 5873 5871 5869 5867 5865 5863 5861 5859 5856 5854 5852 5850 5848
5905 5904 5904 5904 5903 5903 5903 5902 5902 5901 5900 5900 5899 5898 5897 5896 5894 5893 5892 5890 5889 5887 5885 5883 5882 5880 5878 5876 5874 5872 5870 5868 5866 5863 5861 5859 5857 5855 5852 5850 5847 5845 5843
5901 5901 5901 5900 5900 5900 5900 5899 5899 5898 5897 5897 5896 5895 5894 5893 5892 5890 5889 5887 5886 5884 5882 5880 5878 5876 5874 5872 5870 5867 5866 5864 5861 5859 5857 5855 5852 5850 5848 5845 5843 5840 5838
5898 5897 5897 5897 5897 5896 5896 5896 5895 5895 5894 5894 5893 5892 5891 5890 5889 5887 5885 5884 5882 5880 5878 5876 5874 5872 5870 5868 5866 5863 5861 5859 5857 5855 5853 5850 5848 5845 5843 5841 5838 5836 5833
5893 5893 5893 5893 5893 5893 5892 5892 5892 5891 5891 5890 5889 5888 5887 5886 5885 5883 5882 5880 5878 5876 5874 5872 5870 5868 5866 5864 5861 5859 5857 5855 5852 5850 5847 5845 5843 5840 5838 5836 5833 5831 5828
5888 5889 5889 5889 5889 5888 5888 5888 5888 5887 5886 5886 5885 5884 5883 5882 5881 5879 5878 5876 5874 5872 5870 5868 5865 5863 5861 5859 5857 5854 5852 5849 5847 5845 5842 5840 5837 5835 5833 5830 5828 5825 5823
5883 5884 5884 5884 5884 5884 5884 5883 5883 5882 5881 5881 5880 5879 5878 5877 5876 5875 5873 5871 5869 5867 5865 5863 5860 5858 5856 5854 5851 5849 5846 5844 5841 5839 5837 5834 5832 5829 5827 5824 5822 5819 5817
5878 5878 5879 5879 5879 5879 5878 5878 5878 5877 5876 5875 5875 5874 5873 5872 5871 5870 5868 5866 5864 5862 5860 5858 5855 5853 5851 5848 5846 5843 5840 5838 5836 5833 5831 5828 5826 5823 5821 5818 5816 5813 5811
5872 5872 5873 5873 5873 5873 5873 5873 5872 5871 5871 5870 5869 5868 5867 5866 5865 5864 5862 5861 5859 5857 5855 5852 5850 5848 5845 5843 5840 5837 5834 5832 5830 5827 5824 5822 5820 5817 5814 5812 5809 5807 5805
5866 5866 5866 5867 5867 5867 5867 5867 5867 5866 5865 5864 5863 5862 5861 5860 5859 5858 5856 5855 5853 5851 5849 5846 5844 5841 5839 5837 5834 5831 5828 5826 5823 5821 5818 5816 5813 5811 5808 5805 5803 5800 5797
5859 5859 5859 5860 5860 5860 5860 5860 5860 5860 5859 5858 5857 5856 5855 5854 5852 5851 5849 5848 5847 5845 5842 5840 5837 5835 5832 5830 5827 5824 5822 5819 5816 5814 5812 5809 5806 5804 5801 5798 5796 5793 5790
5851 5852 5852 5852 5853 5853 5853 5853 5853 5853 5852 5851 5850 5849 5848 5847 5845 5844 5842 5841 5840 5838 5836 5833 5830 5828 5825 5823 5820 5818 5815 5812 5810 5807 5804 5802 5799 5796 5793 5790 5788 5785 5782
5843 5843 5844 5844 5844 5845 5845 5845 5845 5845 5844 5843 5843 5842 5841 5840 5838 5837 5835 5834 5833 5831 5829 5826 5823 5821 5818 5816 5813 5811 5808 5805 5802 5799 5797 5794 5791 5788 5786 5783 5780 5777 5774
5834 5834 5835 5835 5836 5836 5837 5837 5837 5837 5837 5836 5836 5835 5834 5832 5831 5830 5828 5827 5825 5823 5821 5819 5816 5813 5811 5808 5806 5803 5800 5797 5794 5791 5789 5786 5783 5780 5777 5775 5772 5769 5765
5826 5826 5826 5827 5828 5828 5828 5829 5829 5829 5829 5828 5828 5827 5826 5825 5824 5822 5821 5819 5818 5815 5813 5811 5808 5805 5803 5800 5798 5795 5792 5789 5786 5783 5780 5778 5775 5772 5769 5766 5764 5761 5757
5817 5817 5818 5818 5819 5820 5820 5820 5821 5821 5821 5821 5820 5819 5818 5817 5816 5815 5813 5811 5810 5808 5805 5803 5800 5797 5795 5792 5790 5787 5784 5781 5778 5775 5772 5769 5766 5764 5761 5759 5756 5752 5749